[[{"header":{"parameterUnit":"m.s-1","parameterCategory":1,"la1":30.2991,"la2":30.254,"lo1":-89.0895,"lo2":-89.0444,"dy":0.0017,"dx":0.0017,"nx":28,"ny":28,"refTime":"2025-11-30T09:00:00:Z","depth":0,"parameterNumber":2,"parameterNumberName":"U-component_of_WINDS"},"data":[0,0,0,0,0,0,0,0,0,0,0,0,0,0,0,0,0,0,0,0,0,0,0,0,0,0,0,0,0,0,0,0,0,0,0,0,0,0,0,0,0,0,0,0,0,0,0,0,0,0,0,0,0,0,0,0,0,0,-3.6008,-3.6008,0,-3.6037,-3.6038,-3.6038,-3.5907,-3.5903,-3.5899,-3.5895,-3.5932,-3.5937,-3.5941,0,0,0,0,0,0,0,0,0,0,0,0,0,-3.5846,-3.5849,-3.6008,-3.6008,-3.6009,-3.6037,-3.6038,-3.6038,-3.5907,-3.5903,-3.5898,-3.5893,-3.5931,-3.5936,-3.5942,0,0,0,0,0,0,0,0,0,0,0,0,0,-3.59,-3.585,-3.6008,-3.5947,-3.5941,-3.6037,-3.6038,-3.6038,-3.5908,-3.5902,-3.5897,-3.5891,-3.5929,-3.5936,-3.5943,-3.6101,0,0,-3.5964,-3.5967,0,0,0,0,0,0,0,0,-3.5897,-3.5906,-3.5955,-3.5951,-3.5945,-3.5962,-3.5994,-3.606,-3.591,-3.5921,-3.5895,-3.5888,-3.5948,-3.5952,-3.5971,-3.6103,-3.6104,-3.5964,-3.5968,-3.5971,-3.5973,0,0,0,0,0,0,0,-3.5893,-3.5904,-3.602,-3.5956,-3.595,-3.592,-3.5921,-3.6006,-3.5967,-3.592,-3.591,-3.5915,-3.5944,-3.5965,-3.5971,-3.6105,-3.5964,-3.597,-3.5974,-3.5977,-3.6372,-3.6378,0,0,0,0,0,0,-3.5897,-3.5902,-3.6019,-3.6021,-3.5906,-3.5928,-3.5929,-3.5963,-3.5965,-3.596,-3.592,-3.5909,-3.5956,-3.5963,-3.5972,-3.616,-3.5971,-3.5978,-3.5982,-3.6366,-3.6374,-3.638,0,0,0,0,0,0,-3.5894,-3.5908,-3.6018,-3.5959,-3.597,-3.5937,-3.5976,-3.5966,-3.5987,-3.5965,-3.5958,-3.5948,-3.5951,-3.5962,-3.607,-3.6159,-3.5981,-3.5987,-3.6358,-3.6368,-3.6377,-3.6536,0,0,0,0,0,0,-3.589,-3.5908,-3.5966,-3.5961,-3.5974,-3.6114,-3.5981,-3.5971,-3.5999,-3.5984,-3.599,-3.5986,-3.5948,-3.6061,-3.6077,-3.6165,-3.5992,-3.635,-3.6363,-3.6374,-3.6523,-3.655,-3.6573,0,0,0,0,0,-3.5884,-3.601,-3.597,-3.5984,-3.6045,-3.6119,-3.6127,-3.6078,-3.6006,-3.6066,-3.6052,-3.5985,-3.6146,-3.6073,-3.609,-3.6182,-3.6344,-3.6359,-3.6373,-3.6512,-3.6545,-3.6572,0,0,0,0,0,0,-3.6028,-3.6008,-3.5963,-3.6091,-3.6107,-3.6096,-3.617,-3.6115,-3.6154,-3.6139,-3.608,-3.6083,-3.6202,-3.6202,-3.6121,-3.6337,-3.6233,-3.6252,-3.6333,-3.6364,-3.6389,-3.6387,-3.5998,0,0,0,0,0,-3.6075,-3.6134,-3.6114,-3.6229,-3.6239,-3.6204,-3.6234,-3.6196,-3.6211,-3.6218,-3.6212,-3.6233,-3.6288,-3.6326,-3.6375,-3.6522,-3.6523,-3.6594,-3.6619,-3.664,-3.6657,-3.6739,-3.6771,-3.6427,-3.6427,-3.6427,0,0,-3.6172,-3.6168,-3.6209,-3.6258,-3.6266,-3.6332,-3.621,-3.6284,-3.6333,-3.623,-3.6332,-3.6329,-3.6348,-3.6477,-3.6533,-3.6481,-3.6752,-3.6658,-3.6675,-3.6681,-3.6757,-3.6789,-3.6818,-3.6437,-3.6435,-3.6434,0,0,-3.6382,-3.6384,-3.6481,-3.6492,-3.6506,-3.6481,-3.6505,-3.6503,-3.6497,-3.6598,-3.6523,-3.6581,-3.6677,-3.6694,-3.6715,-3.6936,-3.6877,-3.6953,-3.7086,-3.7166,-3.7193,-3.7216,-3.7298,-3.7327,-3.697,-3.6971,-3.6971,0,-3.6501,-3.6595,-3.6538,-3.6618,-3.6643,-3.6551,-3.6651,-3.6665,-3.6696,-3.6717,-3.6656,-3.6776,-3.6782,-3.6916,-3.697,-3.6989,-3.7017,-3.6953,-3.7193,-3.7216,-3.7237,-3.7315,-3.7345,-3.698,-3.6979,-3.6978,-3.6977,0,-3.6742,-3.6809,-3.6886,-3.6916,-3.695,-3.7039,-3.6999,-3.7041,-3.7,-3.6984,-3.709,-3.7094,-3.7144,-3.7172,-3.7133,-3.7302,-3.7269,-3.7202,-3.7097,-3.7281,-3.7352,-3.7381,-3.6994,-3.699,-3.6987,-3.6985,0,0,-3.7044,-3.7043,-3.7072,-3.7086,-3.7096,-3.7148,-3.7235,-3.7282,-3.732,-3.7345,-3.7418,-3.7502,-3.7441,-3.7466,-3.7428,-3.7498,-3.7677,-3.7423,-3.7423,-3.7472,-3.7866,-3.7918,-3.7953,-3.7637,-3.7642,-3.7647,-3.7865,0,-3.7252,-3.7398,-3.7351,-3.75,-3.7563,-3.7477,-3.7554,-3.757,-3.7557,-3.761,-3.7597,-3.7659,-3.7571,-3.7586,-3.7651,-3.7641,-3.7755,-3.7624,-3.7709,-3.7712,-3.7708,-3.7989,-3.8044,-3.825,-3.7893,-3.7897,-3.7901,0,-3.7514,-3.7548,-3.7703,-3.7705,-3.7729,-3.7798,-3.7839,-3.789,-3.7908,-3.7894,-3.7923,-3.7872,-3.7961,-3.7854,-3.7978,-3.789,-3.7922,-3.7923,-3.793,-3.7937,-3.7819,-3.8007,-3.8314,-3.8346,-3.7944,-3.794,-3.7937,0,-3.7722,-3.7807,-3.7911,-3.7925,-3.7929,-3.798,-3.7985,-3.7996,-3.8029,-3.8066,-3.8087,-3.8134,-3.8161,-3.8201,-3.8166,-3.8091,-3.8297,-3.8186,-3.8291,-3.8292,-3.8339,-3.8337,-3.8658,-3.8356,-3.8356,-3.8355,-3.8355,0,-3.796,-3.8059,-3.8005,-3.8069,-3.8179,-3.8125,-3.8236,-3.8231,-3.8243,-3.8308,-3.8237,-3.83,-3.8249,-3.8308,-3.8281,-3.839,-3.8402,-3.8396,-3.8388,-3.8403,-3.8405,-3.8425,-3.8411,-3.8363,-3.8361,-3.836,-3.8358,0,-3.8211,-3.8178,-3.8287,-3.8281,-3.8283,-3.8364,-3.8361,-3.8422,-3.8405,-3.8488,-3.8504,-3.8478,-3.8544,-3.8513,-3.8582,-3.8564,-3.8705,-3.8677,-3.8699,-3.8692,-3.88,-3.8791,-3.9147,-3.9192,-3.8859,-3.8863,-3.8865,0,-3.8366,-3.844,-3.8443,-3.848,-3.8489,-3.855,-3.8583,-3.8534,-3.8572,-3.8599,-3.8659,-3.8718,-3.8763,-3.8874,-3.8864,-3.8918,-3.8892,-3.9013,-3.89,-3.8914,-3.8897,-3.8894,-3.8903,-3.9036,-3.904,-3.9043,-3.9046,0,-3.8646,-3.8627,-3.8675,-3.872,-3.876,-3.8793,-3.882,-3.8856,-3.8808,-3.8855,-3.8921,-3.8956,-3.9027,-3.9089,-3.9137,-3.9144,-3.909,-3.9081,-3.9109,-3.9126,-3.9137,-3.9136,-3.8764,-3.9074,-3.9071,-3.9069,-3.9067,-3.9066,-3.8855,-3.8918,-3.8931,-3.8988,-3.9004,-3.9031,-3.9089,-3.9079,-3.9133,-3.9185,-3.9154,-3.9233,-3.9252,-3.931,-3.9326,-3.9389,-3.9341,-3.9381,-3.9391,-3.9402,-3.9418,-3.9125,-3.9397,-3.9396,-3.9396,-3.9395,-3.9394,0,-3.9134,-3.9138,-3.9191,-3.9231,-3.9278,-3.9219,-3.9247,-3.9291,-3.936,-3.9381,-3.9428,-3.9506,-3.9566,-3.956,-3.9617,-3.9669,-3.9645,-3.9685,-3.9682,-3.9686,-3.9455,-3.9427,-3.9704,-3.9704,-3.9704,-3.9704,-3.9703,-3.9703,-3.9284,-3.9389,-3.9371,-3.9484,-3.9488,-3.9563,-3.9584,-3.9611,-3.9628,-3.9718,-3.9767,-3.9762,-3.9774,-3.9831,-3.9885,-3.9882,-3.9908,-3.9958,-3.9946,-3.9732,-3.9701,-3.9672,-3.9645,-3.9963,-3.9964,-4.0171,-4.0173,-4.0175]},{"header":{"parameterUnit":"m.s-1","parameterCategory":1,"la1":30.2991,"la2":30.254,"lo1":-89.0895,"lo2":-89.0444,"dy":0.0017,"dx":0.0017,"nx":28,"ny":28,"refTime":"2025-11-30T09:00:00:Z","depth":0,"parameterNumber":3,"parameterNumberName":"V-component_of_WINDS"},"data":[0,0,0,0,0,0,0,0,0,0,0,0,0,0,0,0,0,0,0,0,0,0,0,0,0,0,0,0,0,0,0,0,0,0,0,0,0,0,0,0,0,0,0,0,0,0,0,0,0,0,0,0,0,0,0,0,0,0,-3.1359,-3.1359,0,-3.1346,-3.1346,-3.1346,-3.131,-3.1309,-3.1308,-3.1307,-3.1294,-3.1294,-3.1294,0,0,0,0,0,0,0,0,0,0,0,0,0,-3.135,-3.1351,-3.1359,-3.1359,-3.1359,-3.1346,-3.1346,-3.1346,-3.131,-3.1309,-3.1308,-3.1307,-3.1293,-3.1294,-3.1294,0,0,0,0,0,0,0,0,0,0,0,0,0,-3.1348,-3.1351,-3.1359,-3.1339,-3.1337,-3.1346,-3.1346,-3.1346,-3.131,-3.1309,-3.1308,-3.1307,-3.1293,-3.1294,-3.1294,-3.1321,0,0,-3.1296,-3.1296,0,0,0,0,0,0,0,0,-3.1348,-3.1348,-3.1342,-3.1341,-3.1338,-3.1328,-3.1338,-3.1337,-3.131,-3.132,-3.1307,-3.1306,-3.1306,-3.1305,-3.1306,-3.132,-3.132,-3.1296,-3.1296,-3.1297,-3.1297,0,0,0,0,0,0,0,-3.1348,-3.1348,-3.1354,-3.1342,-3.134,-3.133,-3.1329,-3.1338,-3.132,-3.1319,-3.1317,-3.1316,-3.1305,-3.1305,-3.1305,-3.132,-3.1296,-3.1297,-3.1297,-3.1297,-3.1354,-3.1355,0,0,0,0,0,0,-3.1351,-3.1349,-3.1354,-3.1353,-3.134,-3.1331,-3.133,-3.1333,-3.132,-3.1317,-3.1317,-3.1314,-3.1305,-3.1304,-3.1304,-3.1334,-3.1297,-3.1297,-3.1297,-3.1353,-3.1354,-3.1355,0,0,0,0,0,0,-3.1351,-3.1352,-3.1355,-3.135,-3.135,-3.1333,-3.1337,-3.1333,-3.1333,-3.1318,-3.1314,-3.1321,-3.1304,-3.1304,-3.1317,-3.1333,-3.1297,-3.1298,-3.1351,-3.1353,-3.1355,-3.1393,0,0,0,0,0,0,-3.1351,-3.1352,-3.1363,-3.1351,-3.135,-3.1368,-3.1338,-3.1334,-3.1335,-3.1331,-3.132,-3.1317,-3.1303,-3.1316,-3.1317,-3.1333,-3.1298,-3.135,-3.1352,-3.1354,-3.1391,-3.1396,-3.1401,0,0,0,0,0,-3.1351,-3.1374,-3.1364,-3.1364,-3.1363,-3.1369,-3.1369,-3.1352,-3.1336,-3.1346,-3.1336,-3.1318,-3.1331,-3.1318,-3.1319,-3.1335,-3.1349,-3.1351,-3.1354,-3.1388,-3.1395,-3.1401,0,0,0,0,0,0,-3.1389,-3.1373,-3.136,-3.1381,-3.1377,-3.1363,-3.1375,-3.136,-3.136,-3.1357,-3.1335,-3.1333,-3.1349,-3.1343,-3.1329,-3.1359,-3.1337,-3.134,-3.1362,-3.1369,-3.1374,-3.1375,-3.1299,0,0,0,0,0,-3.14,-3.1406,-3.1391,-3.1411,-3.1409,-3.1393,-3.1395,-3.1382,-3.1377,-3.1375,-3.1365,-3.1361,-3.1363,-3.1366,-3.1367,-3.1389,-3.1386,-3.14,-3.1406,-3.141,-3.1413,-3.1423,-3.1429,-3.1364,-3.1364,-3.1364,0,0,-3.1422,-3.1414,-3.1419,-3.1418,-3.1414,-3.142,-3.1392,-3.14,-3.1405,-3.1376,-3.1388,-3.138,-3.1374,-3.1391,-3.1398,-3.1386,-3.143,-3.1414,-3.1417,-3.1418,-3.1426,-3.1432,-3.1438,-3.1366,-3.1365,-3.1365,0,0,-3.1466,-3.1461,-3.1476,-3.1472,-3.1465,-3.1453,-3.1457,-3.1445,-3.1439,-3.1451,-3.1429,-3.1433,-3.1439,-3.1435,-3.1433,-3.1474,-3.1457,-3.1475,-3.1502,-3.1512,-3.1517,-3.1521,-3.1535,-3.154,-3.1478,-3.1478,-3.1478,0,-3.1495,-3.1504,-3.1486,-3.1495,-3.1495,-3.1469,-3.1483,-3.148,-3.1474,-3.1474,-3.1461,-3.1466,-3.146,-3.1475,-3.1485,-3.1485,-3.1487,-3.1476,-3.1518,-3.1522,-3.1526,-3.1538,-3.1544,-3.148,-3.148,-3.1479,-3.1479,0,-3.1539,-3.1546,-3.1559,-3.1554,-3.1554,-3.1567,-3.1549,-3.1552,-3.1538,-3.1528,-3.1539,-3.153,-3.1529,-3.1532,-3.1519,-3.1545,-3.1538,-3.1522,-3.1499,-3.1534,-3.1546,-3.1551,-3.1483,-3.1482,-3.1481,-3.1481,0,0,-3.1608,-3.1591,-3.1596,-3.1593,-3.1582,-3.1587,-3.1597,-3.1596,-3.1598,-3.1595,-3.1602,-3.1607,-3.1591,-3.1589,-3.1576,-3.1584,-3.1615,-3.1567,-3.1566,-3.1575,-3.1642,-3.1654,-3.166,-3.1604,-3.1605,-3.1606,-3.1642,0,-3.1649,-3.1666,-3.1649,-3.1669,-3.1674,-3.1649,-3.1657,-3.1651,-3.1641,-3.1644,-3.1633,-3.1636,-3.1616,-3.1614,-3.1622,-3.161,-3.1628,-3.1607,-3.161,-3.161,-3.1612,-3.1666,-3.1679,-3.1714,-3.1647,-3.1647,-3.1648,0,-3.17,-3.1698,-3.1719,-3.1705,-3.1707,-3.1715,-3.1712,-3.1715,-3.1707,-3.1699,-3.1696,-3.168,-3.1687,-3.1665,-3.1675,-3.1661,-3.1661,-3.1655,-3.1656,-3.1656,-3.1631,-3.1667,-3.1725,-3.173,-3.1655,-3.1654,-3.1654,0,-3.1747,-3.175,-3.1762,-3.176,-3.1745,-3.1751,-3.1745,-3.1736,-3.1736,-3.1733,-3.1732,-3.173,-3.1729,-3.1727,-3.171,-3.1695,-3.1722,-3.1698,-3.1715,-3.1715,-3.1722,-3.1721,-3.1781,-3.1722,-3.1722,-3.1722,-3.1722,0,-3.1795,-3.1808,-3.1783,-3.179,-3.1804,-3.1783,-3.1797,-3.1789,-3.178,-3.1785,-3.1763,-3.1768,-3.1744,-3.1746,-3.1733,-3.1742,-3.1742,-3.1735,-3.1731,-3.1737,-3.1738,-3.1737,-3.1734,-3.1723,-3.1723,-3.1723,-3.1722,0,-3.185,-3.1834,-3.1845,-3.183,-3.1826,-3.1837,-3.1823,-3.1829,-3.1817,-3.1823,-3.1824,-3.1805,-3.1806,-3.1788,-3.1786,-3.1776,-3.1792,-3.1784,-3.1795,-3.1792,-3.1809,-3.1808,-3.187,-3.1876,-3.1814,-3.1815,-3.1815,0,-3.1882,-3.1891,-3.1876,-3.1878,-3.1873,-3.1876,-3.1875,-3.1855,-3.1855,-3.1846,-3.1853,-3.1852,-3.185,-3.1852,-3.1838,-3.1836,-3.1827,-3.1849,-3.1827,-3.1832,-3.1827,-3.1826,-3.1827,-3.1854,-3.1855,-3.1855,-3.1856,0,-3.1939,-3.193,-3.193,-3.1927,-3.1927,-3.1924,-3.1919,-3.1922,-3.1899,-3.19,-3.1901,-3.1899,-3.1896,-3.1895,-3.189,-3.1883,-3.1865,-3.1863,-3.1866,-3.1872,-3.1878,-3.1874,-3.1807,-3.1861,-3.1861,-3.186,-3.186,-3.186,-3.1983,-3.199,-3.198,-3.1981,-3.1975,-3.197,-3.1975,-3.1963,-3.1963,-3.1959,-3.1947,-3.1949,-3.1939,-3.193,-3.1925,-3.1926,-3.1915,-3.192,-3.1921,-3.1923,-3.1926,-3.1878,-3.1925,-3.1924,-3.1924,-3.1924,-3.1924,0,-3.2038,-3.203,-3.2031,-3.2025,-3.2025,-3.2008,-3.2002,-3.2003,-3.2005,-3.1998,-3.1996,-3.1996,-3.1995,-3.198,-3.1976,-3.198,-3.1972,-3.198,-3.1979,-3.1977,-3.1936,-3.1933,-3.1986,-3.1986,-3.1986,-3.1986,-3.1986,-3.1986,-3.2067,-3.2078,-3.2067,-3.2074,-3.2066,-3.2068,-3.2065,-3.2061,-3.2055,-3.2056,-3.2054,-3.2044,-3.2033,-3.2029,-3.2026,-3.2022,-3.2021,-3.2032,-3.2025,-3.1987,-3.1981,-3.1975,-3.1972,-3.2032,-3.2032,-3.2066,-3.2066,-3.2066]}]]